Погода в Лиенце

Австрия     46°49′46″N   12°45′59″E
темп.,
°C
ветер,
м/с
пор.,
м/с
влажн.,
%
обл.,
%
осадки,
мм/ч
давл.,
гПа
погр.,
м
15 апреля, чт
чт1523:00−8ссз228073 0.1 102872
02:00−10сз228183 0.1 102964
05:00−10ссз127950 0.0 102883
08:00−6ссз127154 0.0 1026215
11:000всв115796 0.0 10231328
14:000вюв2162100 0.5 10201315
17:000в1271100 1.4 1020909
20:00−4с118956 2.6 102223
16 апреля, пт
пт1623:00−8ссз229225 0.2 102737
02:00−10сз229028 0.3 102839
05:00−11сз22873 0.0 102740
08:00−6сз12722 0.0 1023146
11:00+1вюв11592 0.0 1019915
14:00+3юв225745 0.1 10171802
17:00+3вюв126579 0.3 10161201
20:00−3всв118661 0.7 101910
17 апреля, сб
сб1723:00−5с119197 0.0 102225
02:00−7ссз2192100 0.0 102228
05:00−7ссз2290100 0.0 102236
08:00−4с227966 0.0 1019176
11:00+2св22576 0.0 10151066
14:00+4св225688 0.0 10131593
17:00+3ссв236294 0.2 10121305
20:00−3с2290100 0.3 101625
18 апреля, вс
вс1823:00−5ссз2292100 0.0 102042
02:00−5ссз2289100 0.0 102051
05:00−5ссз2287100 0.0 101968
08:00−3с2274100 0.0 1018252
11:00+2ссв1259100 0.0 10161198
14:00+3св1263100 0.2 10151207
17:00+3св1267100 0.6 10141017
20:00−1с2189100 1.1 101726
19 апреля, пн
пн1923:00−3с2291100 0.1 102036
02:00−4ссз119095 0.1 102031
05:00−4ссз2289100 0.0 101939
08:00−2с127792 0.0 1017246
11:00+4всв1258100 0.1 10131349
14:00+4в2265100 1.1 10121118
17:00+3св1268100 1.7 10101001
20:00−1ссв118993 2.8 101221